| time (UTC) | temp F | wind direction | speed MPH | gust MPH | rain 1hr in | rain 24hr in | rain mn in | humidity % | barometer mb |
| 20260505001331 | 54 | 345 | 4.0 | 9.0 | 0.04 | 0.04 | 0.04 | 74 | 1015.5 |
| 20260505000317 | 54 | 345 | 4.0 | 8.0 | 0.02 | 0.02 | 0.02 | 75 | 1015.5 |
| 20260504235350 | 54 | 345 | 2.0 | 5.0 | 0.02 | 0.02 | 0.02 | 76 | 1015.4 |
| 20260504234321 | 55 | 345 | 1.0 | 6.0 | 0.02 | 0.02 | 0.02 | 77 | 1015.3 |
| 20260504233326 | 55 | 345 | 3.0 | 9.0 | 0.01 | 0.01 | 0.01 | 78 | 1015.2 |
| 20260504232331 | 55 | 296 | 4.0 | 9.0 | 0.01 | 0.01 | 0.01 | 77 | 1015.4 |
| 20260504231319 | 56 | 322 | 5.0 | 11.0 | 0.00 | 0.00 | 0.00 | 76 | 1015.2 |
| 20260504230323 | 57 | 345 | 5.0 | 9.0 | 0.00 | 0.00 | 0.00 | 75 | 1015.0 |
| 20260504225328 | 57 | 345 | 3.0 | 8.0 | 0.00 | 0.00 | 0.00 | 72 | 1015.3 |
| 20260504224316 | 58 | 293 | 4.0 | 9.0 | 0.00 | 0.00 | 0.00 | 70 | 1015.3 |
| 20260504223344 | 58 | 303 | 4.0 | 6.0 | 0.00 | 0.00 | 0.00 | 69 | 1015.4 |
| 20260504222343 | 59 | 295 | 4.0 | 6.0 | 0.00 | 0.00 | 0.00 | 68 | 1015.4 |
| 20260504221318 | 59 | 284 | 4.0 | 9.0 | 0.00 | 0.00 | 0.00 | 67 | 1015.4 |
| 20260504220324 | 60 | 319 | 4.0 | 12.0 | 0.00 | 0.00 | 0.00 | 67 | 1015.3 |
| 20260504215335 | 60 | 266 | 7.0 | 13.0 | 0.00 | 0.00 | 0.00 | 62 | 1015.2 |
| 20260504214332 | 60 | 258 | 6.0 | 10.0 | 0.00 | 0.00 | 0.00 | 57 | 1015.3 |
| 20260504213352 | 60 | 242 | 5.0 | 11.0 | 0.00 | 0.00 | 0.00 | 59 | 1015.2 |
| 20260504212317 | 61 | 251 | 8.0 | 13.0 | 0.00 | 0.00 | 0.00 | 58 | 1015.3 |
| 20260504211322 | 61 | 294 | 8.0 | 12.0 | 0.00 | 0.00 | 0.00 | 57 | 1015.4 |
| 20260504210325 | 61 | 256 | 6.0 | 12.0 | 0.00 | 0.00 | 0.00 | 58 | 1015.3 |
| 20260504205328 | 61 | 306 | 5.0 | 12.0 | 0.00 | 0.00 | 0.00 | 58 | 1015.4 |
| 20260504204320 | 61 | 262 | 6.0 | 17.0 | 0.00 | 0.00 | 0.00 | 59 | 1015.3 |
| 20260504203337 | 61 | 273 | 6.0 | 14.0 | 0.00 | 0.00 | 0.00 | 57 | 1015.1 |
| 20260504202316 | 61 | 241 | 8.0 | 14.0 | 0.00 | 0.00 | 0.00 | 57 | 1015.3 |
| 20260504201322 | 61 | 243 | 6.0 | 11.0 | 0.00 | 0.00 | 0.00 | 60 | 1015.2 |
| 20260504200346 | 61 | 251 | 6.0 | 11.0 | 0.00 | 0.00 | 0.00 | 59 | 1015.2 |
| 20260504195331 | 62 | 9 | 2.0 | 13.0 | 0.00 | 0.00 | 0.00 | 62 | 1015.3 |
| 20260504194334 | 62 | 274 | 6.0 | 10.0 | 0.00 | 0.00 | 0.00 | 61 | 1015.2 |
| 20260504193315 | 62 | 304 | 2.0 | 12.0 | 0.00 | 0.00 | 0.00 | 61 | 1015.2 |
| 20260504192351 | 62 | 302 | 5.0 | 14.0 | 0.00 | 0.00 | 0.00 | 61 | 1015.2 |
| 20260504191320 | 62 | 244 | 7.0 | 12.0 | 0.00 | 0.00 | 0.00 | 60 | 1015.3 |
| 20260504190350 | 61 | 223 | 8.0 | 16.0 | 0.00 | 0.00 | 0.00 | 60 | 1015.4 |
| 20260504185330 | 61 | 252 | 7.0 | 11.0 | 0.00 | 0.00 | 0.00 | 58 | 1015.3 |
| 20260504184317 | 61 | 235 | 7.0 | 13.0 | 0.00 | 0.00 | 0.00 | 61 | 1015.4 |
| 20260504183327 | 61 | 250 | 8.0 | 14.0 | 0.00 | 0.00 | 0.00 | 63 | 1015.4 |
| 20260504182312 | 61 | 260 | 6.0 | 13.0 | 0.00 | 0.00 | 0.00 | 62 | 1015.4 |
| 20260504181322 | 61 | 248 | 7.0 | 15.0 | 0.00 | 0.00 | 0.00 | 65 | 1015.3 |
| 20260504180320 | 61 | 246 | 8.0 | 14.0 | 0.00 | 0.00 | 0.00 | 65 | 1015.3 |
| 20260504175323 | 60 | 277 | 7.0 | 12.0 | 0.00 | 0.00 | 0.00 | 65 | 1015.3 |
| 20260504174339 | 60 | 262 | 6.0 | 12.0 | 0.00 | 0.00 | 0.00 | 67 | 1015.3 |
| 20260504173317 | 59 | 260 | 7.0 | 12.0 | 0.00 | 0.00 | 0.00 | 69 | 1015.3 |
| 20260504172337 | 58 | 276 | 8.0 | 14.0 | 0.00 | 0.00 | 0.00 | 70 | 1015.3 |
| 20260504171316 | 58 | 266 | 5.0 | 11.0 | 0.00 | 0.00 | 0.00 | 72 | 1015.3 |
| 20260504170322 | 58 | 246 | 7.0 | 12.0 | 0.00 | 0.00 | 0.00 | 71 | 1015.2 |
| 20260504160328 | 53 | 250 | 8.0 | 11.0 | 0.00 | 0.00 | 0.00 | 68 | 1015.3 |
| 20260504150333 | 51 | 345 | 4.0 | 9.0 | 0.00 | 0.00 | 0.00 | 72 | 1015.1 |
| 20260504141326 | 49 | 345 | 3.0 | 5.0 | 0.00 | 0.00 | 0.00 | 70 | 1015.1 |
| 20260504140325 | 49 | 345 | 1.0 | 4.0 | 0.00 | 0.00 | 0.00 | 70 | 1015.0 |
| 20260504130316 | 48 | 265 | 0.0 | 0.0 | 0.00 | 0.00 | 0.00 | 71 | 1014.6 |
| 20260504120318 | 49 | 300 | 0.0 | 0.0 | 0.00 | 0.00 | 0.00 | 71 | 1014.5 |
| 20260504110311 | 50 | 323 | 0.0 | 0.0 | 0.00 | 0.00 | 0.00 | 73 | 1014.4 |
| 20260504100317 | 52 | 345 | 5.0 | 8.0 | 0.00 | 0.00 | 0.00 | 73 | 1014.2 |
| 20260504081331 | 52 | 345 | 2.0 | 5.0 | 0.00 | 0.00 | 0.00 | 75 | 1014.5 |
| 20260504080312 | 52 | 345 | 1.0 | 4.0 | 0.00 | 0.00 | 0.00 | 75 | 1014.7 |
| 20260504070323 | 52 | 345 | 5.0 | 9.0 | 0.00 | 0.00 | 0.00 | 76 | 1014.6 |
| 20260504050324 | 53 | 345 | 2.0 | 8.0 | 0.00 | 0.00 | 0.00 | 78 | 1014.3 |
| 20260504045330 | 53 | 345 | 2.0 | 8.0 | 0.00 | 0.00 | 0.00 | 78 | 1014.1 |
| 20260504044341 | 53 | 345 | 3.0 | 6.0 | 0.00 | 0.00 | 0.00 | 78 | 1014.1 |
| 20260504043325 | 53 | 345 | 4.0 | 8.0 | 0.00 | 0.00 | 0.00 | 78 | 1014.0 |
| 20260504042330 | 53 | 345 | 3.0 | 6.0 | 0.00 | 0.00 | 0.00 | 78 | 1013.9 |
| 20260504041319 | 53 | 345 | 2.0 | 8.0 | 0.00 | 0.00 | 0.00 | 78 | 1014.0 |
| 20260504040316 | 53 | 308 | 2.0 | 8.0 | 0.00 | 0.00 | 0.00 | 78 | 1013.9 |
| 20260504035324 | 53 | 345 | 2.0 | 4.0 | 0.00 | 0.00 | 0.00 | 78 | 1013.8 |
| 20260504034352 | 54 | 285 | 1.0 | 6.0 | 0.00 | 0.00 | 0.00 | 78 | 1013.7 |
| 20260504033341 | 54 | 345 | 2.0 | 7.0 | 0.00 | 0.00 | 0.00 | 78 | 1013.5 |
| 20260504032350 | 54 | 345 | 3.0 | 9.0 | 0.00 | 0.00 | 0.00 | 78 | 1013.6 |
| 20260504031319 | 55 | 345 | 5.0 | 9.0 | 0.00 | 0.00 | 0.00 | 77 | 1013.4 |
| 20260504030345 | 55 | 345 | 7.0 | 10.0 | 0.00 | 0.00 | 0.00 | 77 | 1013.3 |
| 20260504025349 | 55 | 345 | 5.0 | 11.0 | 0.00 | 0.00 | 0.00 | 76 | 1013.2 |
| 20260504024331 | 56 | 345 | 4.0 | 11.0 | 0.00 | 0.00 | 0.00 | 76 | 1013.1 |
| 20260504023313 | 56 | 345 | 6.0 | 11.0 | 0.00 | 0.00 | 0.00 | 74 | 1012.9 |
| 20260504022323 | 57 | 303 | 6.0 | 12.0 | 0.00 | 0.00 | 0.00 | 73 | 1012.9 |
| 20260504021320 | 58 | 239 | 6.0 | 14.0 | 0.00 | 0.00 | 0.00 | 72 | 1012.9 |
| 20260504020347 | 58 | 251 | 5.0 | 11.0 | 0.00 | 0.00 | 0.00 | 72 | 1012.8 |
| 20260504015316 | 58 | 283 | 7.0 | 14.0 | 0.00 | 0.00 | 0.00 | 72 | 1012.8 |
| 20260504014327 | 59 | 287 | 6.0 | 11.0 | 0.00 | 0.00 | 0.00 | 71 | 1012.8 |
| 20260504013312 | 59 | 280 | 6.0 | 14.0 | 0.00 | 0.00 | 0.00 | 71 | 1012.8 |
| 20260504012314 | 58 | 260 | 8.0 | 13.0 | 0.00 | 0.00 | 0.00 | 71 | 1012.8 |
| 20260504011324 | 59 | 256 | 8.0 | 13.0 | 0.00 | 0.00 | 0.00 | 70 | 1012.8 |
| 20260504010328 | 60 | 331 | 9.0 | 14.0 | 0.00 | 0.00 | 0.00 | 68 | 1012.9 |
| 20260504005318 | 60 | 275 | 7.0 | 13.0 | 0.00 | 0.00 | 0.00 | 69 | 1013.0 |
| 20260504004323 | 60 | 280 | 6.0 | 13.0 | 0.00 | 0.00 | 0.00 | 69 | 1013.0 |
| 20260504003313 | 60 | 256 | 7.0 | 12.0 | 0.00 | 0.00 | 0.00 | 69 | 1012.8 |
| 20260504002347 | 60 | 260 | 6.0 | 12.0 | 0.00 | 0.00 | 0.00 | 69 | 1012.9 |